Location: Sangrey
(48.2845°N, 109.8206°W)
Time: 00:11:01
(UTC+00:00)

Envisat - Pass Details

Date: 23 January 2022
Orbit: 764 x 765 km, 98.2° (Epoch: 22 May)

Event Time Altitude Azimuth Distance (km) Brightness Sun altitude
Rises 11:09:40 0° 25° (NNE) 3,241 6.7 -37.7°
Reaches altitude 10° 11:12:31 10° 41° (NE) 2,310 6.0 -37.2°
Maximum altitude 11:16:24 22° 91° (E) 1,644 5.2 -36.6°
Drops below altitude 10° 11:20:15 10° 141° (SE) 2,297 5.7 -35.9°
Sets 11:23:03 0° 157° (SSE) 3,218 6.4 -35.5°
